Regional Weather Roundup
Issued by NWS

Home | Current Version | Previous Version | Text Only | Print | Product List | Glossary On
Versions: 1 2 3 4 5 6 7 8 9 10 11 12 13 14 15 16 17 18 19 20 21 22 23 24 25 26 27 28 29 30 31 32 33 34 35 36 37 38 39 40 41 42 43 44 45 46 47 48 49 50
000
ASUS43 KDMX 312107
RWRIA

WEATHER ROUNDUP FOR IOWA
NATIONAL WEATHER SERVICE DES MOINES IA
400 PM CDT FRI JUL 31 2015

NOTE: "FAIR" INDICATES FEW OR NO CLOUDS BELOW 12,000 FEET WITH NO
SIGNIFICANT WEATHER AND/OR OBSTRUCTIONS TO VISIBILITY.

* - THESE STATIONS ARE NOT NWS STATIONS...THUS NOT UNDER NWS
QUALITY CONTROL.  THEY ALSO DO NOT REPORT WEATHER SUCH
AS PRECIPITATION OR FOG.

IAZ001>003-012>014-020>022-031>034-043>046-312200-
   NORTHWEST IOWA

CITY           SKY/WX    TMP DP  RH WIND       PRES   REMARKS
CARROLL *      SUNNY     84  68  58 NE8       30.08F HX  87
CHEROKEE *     SUNNY     84  61  45 E5        30.09F HX  84
DENISON *      MOSUNNY   84  70  61 CALM      30.06F HX  88
LE MARS *      SUNNY     84  63  48 E7        30.09F HX  85
ORANGE CITY *  SUNNY     82  55  39 E7        30.10F HX  82
SHELDON *      SUNNY     82  59  44 CALM      30.09F HX  82
SIOUX CITY     SUNNY     87  71  58 VRB6      30.06F HX  93
SPENCER        SUNNY     86  53  32 NW5       30.10F HX  84
STORM LAKE *   SUNNY     81  61  50 NE6       30.11F HX  81
$$

IAZ055>058-069>071-079>083-090>094-312200-
   SOUTHWEST IOWA

CITY           SKY/WX    TMP DP  RH WIND       PRES   REMARKS
ATLANTIC *     PTSUNNY   84  75  74 CALM      30.07F HX  92
AUDUBON *      SUNNY     88  73  62 E6        30.10F HX  96
CLARINDA *     MOSUNNY   88  75  66 SW8       30.08F HX  97
COUNCIL BLFS * PTSUNNY   88  73  62 CALM      30.07F HX  96
CRESTON *      MOSUNNY   86  72  62 CALM      30.10F HX  92
HARLAN  *      MOSUNNY   84  79  84 CALM      30.10F HX  96
LAMONI         SUNNY     88  71  57 W5        30.08F HX  94
RED OAK *      MOSUNNY   90  73  58 SW8       30.06F HX  98
SHENANDOAH *   PTSUNNY   90  75  62 SW8       30.07F HX 100
$$

IAZ047>049-059>061-072>074-084-312200-
   CENTRAL IOWA

CITY           SKY/WX    TMP DP  RH WIND       PRES   REMARKS
AMES           PTSUNNY   85  64  49 N9        30.08F HX  86
ANKENY *       PTSUNNY   84  64  51 NE6       30.07F HX  86
CHARITON *     SUNNY     86  70  58 VRB6      30.07F HX  90
DES MOINES     MOSUNNY   89  65  44 N9        30.06F HX  91
GRINNELL*      SUNNY     82  63  51 NW6       30.08F HX  83
KNOXVILLE *    SUNNY     84  64  51 NW8       30.06F HX  86
MARSHALLTOWN   MOSUNNY   83  62  49 N9G21     30.07F HX  84
PELLA *        SUNNY     86  72  62 NW6       30.07F HX  92
PERRY *          N/A     84  68  58 N3        30.08F HX  87
$$

IAZ004>006-015-016-023>025-035-036-312200-
   NORTH CENTRAL IOWA

CITY           SKY/WX    TMP DP  RH WIND       PRES   REMARKS
ALGONA *       SUNNY     82  55  39 N7        30.10F HX  82
CLARION *      SUNNY     81  57  44 N9        30.09F HX  81
ESTHERVILLE    SUNNY     82  55  39 N10       30.10F HX  81
FORT DODGE *   SUNNY     82  61  47 N5        30.10F HX  83
MASON CITY     SUNNY     82  58  43 NW13      30.09F HX  82
FOREST CITY *  SUNNY     79  55  44 NW9       30.09F
IOWA FALLS *     N/A     82  57  42 NW10      30.10F HX  82
$$

IAZ007>011-017>019-026>030-037>042-050>054-066-312200-
   NORTHEAST IOWA

CITY           SKY/WX    TMP DP  RH WIND       PRES   REMARKS
CEDAR RAPIDS   SUNNY     83  63  50 NW10      30.05F HX  84
CHARLES CITY * SUNNY     79  59  50 NW12G18   30.07F HX  80
CLINTON *      SUNNY     84  57  39 NW16G22   30.04F HX  83
DECORAH *      SUNNY     79  50  36 NW17G31   30.04S
DUBUQUE        SUNNY     83  54  36 NW21G28   30.03F HX  82
MONTICELLO *   SUNNY     82  55  39 W18       30.03S HX  82
OELWEIN *      SUNNY     81  57  44 NW15G23   30.07S HX  81
WATERLOO       SUNNY     83  59  44 NW10      30.05F HX  83
$$

IAZ064-065-067-068-078-312200-
   EAST CENTRAL IOWA

CITY           SKY/WX    TMP DP  RH WIND       PRES   REMARKS
DAVENPORT      SUNNY     85  59  41 NW13G22   30.03F HX  84
IOWA CITY      SUNNY     87  60  40 NW12      30.05F HX  87
MT. PLEASANT * SUNNY     90  55  31 NW5       30.05F HX  88
MUSCATINE *    SUNNY     90  59  35 NW8G17    30.03F HX  89
QUAD CITIES    SUNNY     89  58  34 NW18G26   30.01F HX  88
$$

IAZ062-063-075>077-085>089-095>099-312200-
   SOUTHEAST IOWA

CITY           SKY/WX    TMP DP  RH WIND       PRES   REMARKS
BURLINGTON     SUNNY     87  66  49 NW5       30.04F HX  89
FAIRFIELD *    SUNNY     86  66  51 N8        30.06F HX  88
FORT MADISON * SUNNY     86  72  62 NW7       30.05F HX  92
KEOKUK *       MOSUNNY   88  68  51 VRB3G13   30.04F HX  91
OSKALOOSA *      N/A     84  68  58 CALM      30.07F HX  87
CENTERVILLE *  SUNNY     86  72  62 W6        30.08F HX  92
OTTUMWA        MOSUNNY   86  68  54 N9        30.05F HX  89
WASHINGTON *   SUNNY     86  63  45 N9G15     30.07S HX  87
$$

ABBREVIATIONS USED IN REMARKS
   TC - TEMPERATURES IN CELSIUS
  WCI - WIND CHILL INDEX
   HX - HEAT INDEX
  VSB - VISIBILITY
$$




USA.gov is the U.S. government's official web portal to all federal, state and local government web resources and services.